Time,TemperatureF,DewpointF,PressureIn,WindDirection,WindDirectionDegrees,WindSpeedMPH,WindSpeedGustMPH,Humidity,HourlyPrecipIn,Conditions,Clouds,dailyrainin,SoftwareType,DateUTC
2013-03-24 00:03:00,48.0,-99.9,-100.00,NNE,25,9.0,11.0,-999,-99.99,,,-99.99,,2013-03-24 04:03:00,
2013-03-24 00:13:00,48.0,-99.9,-100.00,NNE,30,9.0,11.0,-999,-99.99,,,-99.99,,2013-03-24 04:13:00,
2013-03-24 00:23:00,48.0,-99.9,-100.00,NNE,30,9.0,12.0,-999,-99.99,,,-99.99,,2013-03-24 04:23:00,
2013-03-24 00:33:00,48.0,-99.9,-100.00,NNE,25,9.0,13.0,-999,-99.99,,,-99.99,,2013-03-24 04:33:00,
2013-03-24 00:43:00,48.0,-99.9,-100.00,NNE,25,9.0,14.0,-999,-99.99,,,-99.99,,2013-03-24 04:43:00,
2013-03-24 00:53:00,48.0,-99.9,-100.00,NNE,25,9.0,11.0,-999,-99.99,,,-99.99,,2013-03-24 04:53:00,
2013-03-24 01:03:00,48.0,-99.9,-100.00,NNE,25,9.0,11.0,-999,-99.99,,,-99.99,,2013-03-24 05:03:00,
2013-03-24 01:13:00,48.0,-99.9,-100.00,NNE,25,9.0,12.0,-999,-99.99,,,-99.99,,2013-03-24 05:13:00,
2013-03-24 01:23:00,48.0,-99.9,-100.00,NNE,30,10.0,11.0,-999,-99.99,,,-99.99,,2013-03-24 05:23:00,
2013-03-24 01:33:00,49.0,-99.9,-100.00,NNE,25,11.0,13.0,-999,-99.99,,,-99.99,,2013-03-24 05:33:00,
2013-03-24 01:43:00,49.0,-99.9,-100.00,NNE,25,9.0,11.0,-999,-99.99,,,-99.99,,2013-03-24 05:43:00,
2013-03-24 01:52:00,49.0,-99.9,-100.00,NNE,25,9.0,11.0,-999,-99.99,,,-99.99,,2013-03-24 05:52:00,
2013-03-24 02:02:00,49.0,-99.9,-100.00,NNE,30,9.0,11.0,-999,-99.99,,,-99.99,,2013-03-24 06:02:00,
2013-03-24 02:12:00,49.0,-99.9,-100.00,NNE,25,14.0,16.0,-999,-99.99,,,-99.99,,2013-03-24 06:12:00,
2013-03-24 02:22:00,50.0,-99.9,-100.00,NNE,25,14.0,18.0,-999,-99.99,,,-99.99,,2013-03-24 06:22:00,
2013-03-24 02:32:00,50.0,-99.9,-100.00,NNE,25,13.0,16.0,-999,-99.99,,,-99.99,,2013-03-24 06:32:00,
2013-03-24 02:43:00,50.0,-99.9,-100.00,NNE,25,14.0,21.0,-999,-99.99,,,-99.99,,2013-03-24 06:43:00,
2013-03-24 02:52:00,50.0,-99.9,-100.00,NNE,25,14.0,17.0,-999,-99.99,,,-99.99,,2013-03-24 06:52:00,
2013-03-24 03:03:00,50.0,-99.9,-100.00,NNE,25,11.0,16.0,-999,-99.99,,,-99.99,,2013-03-24 07:03:00,
2013-03-24 03:12:00,50.0,-99.9,-100.00,NNE,30,14.0,15.0,-999,-99.99,,,-99.99,,2013-03-24 07:12:00,
2013-03-24 03:22:00,50.0,-99.9,-100.00,NNE,30,14.0,19.0,-999,-99.99,,,-99.99,,2013-03-24 07:22:00,
2013-03-24 03:32:00,50.0,-99.9,-100.00,NNE,25,13.0,14.0,-999,-99.99,,,-99.99,,2013-03-24 07:32:00,
2013-03-24 03:42:00,51.0,-99.9,-100.00,NNE,20,8.0,14.0,-999,-99.99,,,-99.99,,2013-03-24 07:42:00,
2013-03-24 03:53:00,50.0,-99.9,-100.00,NNE,30,11.0,18.0,-999,-99.99,,,-99.99,,2013-03-24 07:53:00,
2013-03-24 04:03:00,51.0,-99.9,-100.00,NE,35,11.0,14.0,-999,-99.99,,,-99.99,,2013-03-24 08:03:00,
2013-03-24 04:12:00,51.0,-99.9,-100.00,NNE,30,13.0,14.0,-999,-99.99,,,-99.99,,2013-03-24 08:12:00,
2013-03-24 04:22:00,51.0,-99.9,-100.00,NE,55,6.0,13.0,-999,-99.99,,,-99.99,,2013-03-24 08:22:00,
2013-03-24 04:32:00,51.0,-99.9,-100.00,NE,55,8.0,9.0,-999,-99.99,,,-99.99,,2013-03-24 08:32:00,
2013-03-24 04:42:00,51.0,-99.9,-100.00,NE,40,13.0,15.0,-999,-99.99,,,-99.99,,2013-03-24 08:42:00,
2013-03-24 04:53:00,51.0,-99.9,-100.00,NE,55,13.0,16.0,-999,-99.99,,,-99.99,,2013-03-24 08:53:00,
2013-03-24 05:02:00,51.0,-99.9,-100.00,ENE,60,14.0,19.0,-999,-99.99,,,-99.99,,2013-03-24 09:02:00,
2013-03-24 05:12:00,51.0,-99.9,-100.00,ENE,65,9.0,16.0,-999,-99.99,,,-99.99,,2013-03-24 09:12:00,
2013-03-24 05:22:00,52.0,-99.9,-100.00,ENE,70,15.0,21.0,-999,-99.99,,,-99.99,,2013-03-24 09:22:00,
2013-03-24 05:33:00,53.0,-99.9,-100.00,ENE,60,16.0,21.0,-999,-99.99,,,-99.99,,2013-03-24 09:33:00,
2013-03-24 05:43:00,53.0,-99.9,-100.00,ENE,60,18.0,24.0,-999,-99.99,,,-99.99,,2013-03-24 09:43:00,
2013-03-24 05:53:00,53.0,-99.9,-100.00,NE,50,17.0,21.0,-999,-99.99,,,-99.99,,2013-03-24 09:53:00,
2013-03-24 06:03:00,53.0,-99.9,-100.00,ENE,60,14.0,20.0,-999,-99.99,,,-99.99,,2013-03-24 10:03:00,
2013-03-24 06:13:00,53.0,-99.9,-100.00,ENE,60,21.0,26.0,-999,-99.99,,,-99.99,,2013-03-24 10:13:00,
2013-03-24 06:23:00,53.0,-99.9,-100.00,ENE,65,20.0,25.0,-999,-99.99,,,-99.99,,2013-03-24 10:23:00,
2013-03-24 06:33:00,54.0,-99.9,-100.00,ENE,70,10.0,22.0,-999,-99.99,,,-99.99,,2013-03-24 10:33:00,
2013-03-24 06:43:00,54.0,-99.9,-100.00,ENE,65,16.0,24.0,-999,-99.99,,,-99.99,,2013-03-24 10:43:00,
2013-03-24 06:53:00,53.0,-99.9,-100.00,NE,55,19.0,24.0,-999,-99.99,,,-99.99,,2013-03-24 10:53:00,
2013-03-24 07:03:00,54.0,-99.9,-100.00,NE,35,16.0,19.0,-999,-99.99,,,-99.99,,2013-03-24 11:03:00,
2013-03-24 07:12:00,54.0,-99.9,-100.00,NNE,15,18.0,26.0,-999,-99.99,,,-99.99,,2013-03-24 11:12:00,
2013-03-24 07:22:00,53.0,-99.9,-100.00,NE,45,21.0,24.0,-999,-99.99,,,-99.99,,2013-03-24 11:22:00,
2013-03-24 07:33:00,53.0,-99.9,-100.00,NNE,25,21.0,26.0,-999,-99.99,,,-99.99,,2013-03-24 11:33:00,
2013-03-24 07:43:00,54.0,-99.9,-100.00,North,355,19.0,26.0,-999,-99.99,,,-99.99,,2013-03-24 11:43:00,
2013-03-24 07:52:00,53.0,-99.9,-100.00,NNW,335,21.0,33.0,-999,-99.99,,,-99.99,,2013-03-24 11:52:00,
2013-03-24 08:03:00,52.0,-99.9,-100.00,NNE,30,34.0,40.0,-999,-99.99,,,-99.99,,2013-03-24 12:03:00,
2013-03-24 08:13:00,52.0,-99.9,-100.00,NNE,15,21.0,42.0,-999,-99.99,,,-99.99,,2013-03-24 12:13:00,
2013-03-24 08:23:00,52.0,-99.9,-100.00,NNE,30,26.0,33.0,-999,-99.99,,,-99.99,,2013-03-24 12:23:00,
2013-03-24 08:33:00,52.0,-99.9,-100.00,NNE,15,19.0,31.0,-999,-99.99,,,-99.99,,2013-03-24 12:33:00,
2013-03-24 08:42:00,52.0,-99.9,-100.00,NNE,25,22.0,32.0,-999,-99.99,,,-99.99,,2013-03-24 12:42:00,
2013-03-24 08:53:00,52.0,-99.9,-100.00,NNW,330,17.0,29.0,-999,-99.99,,,-99.99,,2013-03-24 12:53:00,
2013-03-24 09:03:00,52.0,-99.9,-100.00,North,10,23.0,29.0,-999,-99.99,,,-99.99,,2013-03-24 13:03:00,
2013-03-24 09:13:00,51.0,-99.9,-100.00,NW,325,20.0,27.0,-999,-99.99,,,-99.99,,2013-03-24 13:13:00,
2013-03-24 09:23:00,51.0,-99.9,-100.00,NNW,345,15.0,29.0,-999,-99.99,,,-99.99,,2013-03-24 13:23:00,
2013-03-24 09:33:00,50.0,-99.9,-100.00,NNW,340,24.0,33.0,-999,-99.99,,,-99.99,,2013-03-24 13:33:00,
2013-03-24 09:43:00,50.0,-99.9,-100.00,NNE,25,20.0,29.0,-999,-99.99,,,-99.99,,2013-03-24 13:43:00,
2013-03-24 09:53:00,49.0,-99.9,-100.00,NNE,20,23.0,32.0,-999,-99.99,,,-99.99,,2013-03-24 13:53:00,
2013-03-24 10:03:00,49.0,-99.9,-100.00,NNE,20,23.0,29.0,-999,-99.99,,,-99.99,,2013-03-24 14:03:00,
2013-03-24 10:13:00,50.0,-99.9,-100.00,NNE,30,22.0,32.0,-999,-99.99,,,-99.99,,2013-03-24 14:13:00,
2013-03-24 10:22:00,50.0,-99.9,-100.00,NNE,30,18.0,26.0,-999,-99.99,,,-99.99,,2013-03-24 14:22:00,
2013-03-24 10:33:00,51.0,-99.9,-100.00,NE,35,11.0,19.0,-999,-99.99,,,-99.99,,2013-03-24 14:33:00,
2013-03-24 10:43:00,51.0,-99.9,-100.00,NE,40,17.0,20.0,-999,-99.99,,,-99.99,,2013-03-24 14:43:00,
2013-03-24 10:53:00,51.0,-99.9,-100.00,East,80,7.0,19.0,-999,-99.99,,,-99.99,,2013-03-24 14:53:00,
2013-03-24 11:02:00,51.0,-99.9,-100.00,ENE,60,19.0,23.0,-999,-99.99,,,-99.99,,2013-03-24 15:02:00,
2013-03-24 11:13:00,51.0,-99.9,-100.00,NE,50,16.0,24.0,-999,-99.99,,,-99.99,,2013-03-24 15:13:00,
2013-03-24 11:23:00,51.0,-99.9,-100.00,ENE,70,11.0,19.0,-999,-99.99,,,-99.99,,2013-03-24 15:23:00,
2013-03-24 11:33:00,51.0,-99.9,-100.00,East,90,8.0,15.0,-999,-99.99,,,-99.99,,2013-03-24 15:33:00,
2013-03-24 11:44:00,51.0,-99.9,-100.00,ESE,115,11.0,16.0,-999,-99.99,,,-99.99,,2013-03-24 15:44:00,
2013-03-24 11:53:00,52.0,-99.9,-100.00,East,85,10.0,20.0,-999,-99.99,,,-99.99,,2013-03-24 15:53:00,
2013-03-24 12:03:00,52.0,-99.9,-100.00,East,100,9.0,17.0,-999,-99.99,,,-99.99,,2013-03-24 16:03:00,
2013-03-24 12:13:00,53.0,-99.9,-100.00,ENE,65,9.0,13.0,-999,-99.99,,,-99.99,,2013-03-24 16:13:00,
2013-03-24 12:23:00,53.0,-99.9,-100.00,ENE,75,6.0,11.0,-999,-99.99,,,-99.99,,2013-03-24 16:23:00,
2013-03-24 12:33:00,53.0,-99.9,-100.00,East,100,8.0,11.0,-999,-99.99,,,-99.99,,2013-03-24 16:33:00,
2013-03-24 12:43:00,54.0,-99.9,-100.00,East,95,8.0,11.0,-999,-99.99,,,-99.99,,2013-03-24 16:43:00,
2013-03-24 12:53:00,54.0,-99.9,-100.00,East,80,6.0,10.0,-999,-99.99,,,-99.99,,2013-03-24 16:53:00,
2013-03-24 13:03:00,55.0,-99.9,-100.00,East,80,6.0,12.0,-999,-99.99,,,-99.99,,2013-03-24 17:03:00,
2013-03-24 13:12:00,56.0,-99.9,-100.00,SE,125,3.0,11.0,-999,-99.99,,,-99.99,,2013-03-24 17:12:00,
2013-03-24 13:23:00,57.0,-99.9,-100.00,ESE,105,4.0,9.0,-999,-99.99,,,-99.99,,2013-03-24 17:23:00,
2013-03-24 13:33:00,57.0,-99.9,-100.00,ESE,115,5.0,8.0,-999,-99.99,,,-99.99,,2013-03-24 17:33:00,
2013-03-24 13:43:00,58.0,-99.9,-100.00,ESE,115,5.0,9.0,-999,-99.99,,,-99.99,,2013-03-24 17:43:00,
2013-03-24 13:53:00,58.0,-99.9,-100.00,ESE,115,5.0,9.0,-999,-99.99,,,-99.99,,2013-03-24 17:53:00,
2013-03-24 14:03:00,59.0,-99.9,-100.00,SE,145,8.0,11.0,-999,-99.99,,,-99.99,,2013-03-24 18:03:00,
2013-03-24 14:13:00,59.0,-99.9,-100.00,SSE,160,8.0,11.0,-999,-99.99,,,-99.99,,2013-03-24 18:13:00,
2013-03-24 14:22:00,59.0,-99.9,-100.00,SSE,155,7.0,13.0,-999,-99.99,,,-99.99,,2013-03-24 18:22:00,
2013-03-24 14:33:00,60.0,-99.9,-100.00,South,175,6.0,11.0,-999,-99.99,,,-99.99,,2013-03-24 18:33:00,
2013-03-24 14:43:00,61.0,-99.9,-100.00,SSW,205,9.0,16.0,-999,-99.99,,,-99.99,,2013-03-24 18:43:00,
2013-03-24 14:53:00,61.0,-99.9,-100.00,WSW,240,9.0,14.0,-999,-99.99,,,-99.99,,2013-03-24 18:53:00,
2013-03-24 15:03:00,61.0,-99.9,-100.00,West,270,9.0,19.0,-999,-99.99,,,-99.99,,2013-03-24 19:03:00,
2013-03-24 15:12:00,60.0,-99.9,-100.00,West,270,10.0,15.0,-999,-99.99,,,-99.99,,2013-03-24 19:12:00,
2013-03-24 15:23:00,59.0,-99.9,-100.00,West,275,13.0,19.0,-999,-99.99,,,-99.99,,2013-03-24 19:23:00,
2013-03-24 15:33:00,59.0,-99.9,-100.00,West,270,13.0,18.0,-999,-99.99,,,-99.99,,2013-03-24 19:33:00,
2013-03-24 15:43:00,58.0,-99.9,-100.00,West,275,13.0,18.0,-999,-99.99,,,-99.99,,2013-03-24 19:43:00,
2013-03-24 15:53:00,58.0,-99.9,-100.00,West,275,13.0,19.0,-999,-99.99,,,-99.99,,2013-03-24 19:53:00,
2013-03-24 16:03:00,58.0,-99.9,-100.00,West,265,11.0,19.0,-999,-99.99,,,-99.99,,2013-03-24 20:03:00,
2013-03-24 16:13:00,58.0,-99.9,-100.00,West,270,15.0,23.0,-999,-99.99,,,-99.99,,2013-03-24 20:13:00,
2013-03-24 16:23:00,58.0,-99.9,-100.00,West,270,11.0,20.0,-999,-99.99,,,-99.99,,2013-03-24 20:23:00,
2013-03-24 16:33:00,56.0,-99.9,-100.00,West,275,16.0,24.0,-999,-99.99,,,-99.99,,2013-03-24 20:33:00,
2013-03-24 16:43:00,56.0,-99.9,-100.00,WNW,300,20.0,24.0,-999,-99.99,,,-99.99,,2013-03-24 20:43:00,
2013-03-24 16:53:00,54.0,-99.9,-100.00,WNW,295,21.0,29.0,-999,-99.99,,,-99.99,,2013-03-24 20:53:00,
2013-03-24 17:03:00,54.0,-99.9,-100.00,WNW,300,20.0,26.0,-999,-99.99,,,-99.99,,2013-03-24 21:03:00,
2013-03-24 17:12:00,53.0,-99.9,-100.00,WNW,300,21.0,26.0,-999,-99.99,,,-99.99,,2013-03-24 21:12:00,
2013-03-24 17:23:00,52.0,-99.9,-100.00,WNW,300,19.0,24.0,-999,-99.99,,,-99.99,,2013-03-24 21:23:00,
2013-03-24 17:33:00,52.0,-99.9,-100.00,WNW,295,19.0,24.0,-999,-99.99,,,-99.99,,2013-03-24 21:33:00,
2013-03-24 17:43:00,51.0,-99.9,-100.00,WNW,295,18.0,24.0,-999,-99.99,,,-99.99,,2013-03-24 21:43:00,
2013-03-24 17:53:00,51.0,-99.9,-100.00,WNW,300,16.0,24.0,-999,-99.99,,,-99.99,,2013-03-24 21:53:00,
2013-03-24 18:03:00,51.0,-99.9,-100.00,WNW,300,19.0,26.0,-999,-99.99,,,-99.99,,2013-03-24 22:03:00,
2013-03-24 18:13:00,50.0,-99.9,-100.00,WNW,285,16.0,22.0,-999,-99.99,,,-99.99,,2013-03-24 22:13:00,
2013-03-24 18:23:00,50.0,-99.9,-100.00,WNW,290,18.0,23.0,-999,-99.99,,,-99.99,,2013-03-24 22:23:00,
2013-03-24 18:33:00,50.0,-99.9,-100.00,WNW,290,17.0,26.0,-999,-99.99,,,-99.99,,2013-03-24 22:33:00,
2013-03-24 18:43:00,50.0,-99.9,-100.00,West,280,14.0,21.0,-999,-99.99,,,-99.99,,2013-03-24 22:43:00,
2013-03-24 18:53:00,50.0,-99.9,-100.00,NW,310,14.0,20.0,-999,-99.99,,,-99.99,,2013-03-24 22:53:00,
2013-03-24 19:03:00,50.0,-99.9,-100.00,WNW,300,14.0,19.0,-999,-99.99,,,-99.99,,2013-03-24 23:03:00,
2013-03-24 19:12:00,49.0,-99.9,-100.00,NW,305,15.0,20.0,-999,-99.99,,,-99.99,,2013-03-24 23:12:00,
2013-03-24 19:23:00,48.0,-99.9,-100.00,NW,315,15.0,22.0,-999,-99.99,,,-99.99,,2013-03-24 23:23:00,
2013-03-24 19:32:00,48.0,-99.9,-100.00,NW,320,16.0,24.0,-999,-99.99,,,-99.99,,2013-03-24 23:32:00,
2013-03-24 19:43:00,48.0,-99.9,-100.00,NW,310,14.0,20.0,-999,-99.99,,,-99.99,,2013-03-24 23:43:00,
2013-03-24 19:53:00,47.0,-99.9,-100.00,WNW,300,13.0,21.0,-999,-99.99,,,-99.99,,2013-03-24 23:53:00,
2013-03-24 20:02:00,47.0,-99.9,-100.00,WNW,290,11.0,19.0,-999,-99.99,,,-99.99,,2013-03-25 00:02:00,
2013-03-24 20:12:00,47.0,-99.9,-100.00,NW,320,11.0,18.0,-999,-99.99,,,-99.99,,2013-03-25 00:12:00,
2013-03-24 20:23:00,47.0,-99.9,-100.00,NW,310,13.0,21.0,-999,-99.99,,,-99.99,,2013-03-25 00:23:00,
2013-03-24 20:33:00,47.0,-99.9,-100.00,NW,310,13.0,21.0,-999,-99.99,,,-99.99,,2013-03-25 00:33:00,
2013-03-24 20:43:00,47.0,-99.9,-100.00,NW,315,15.0,20.0,-999,-99.99,,,-99.99,,2013-03-25 00:43:00,
2013-03-24 20:53:00,47.0,-99.9,-100.00,NW,310,15.0,20.0,-999,-99.99,,,-99.99,,2013-03-25 00:53:00,
2013-03-24 21:02:00,46.0,-99.9,-100.00,NW,315,14.0,21.0,-999,-99.99,,,-99.99,,2013-03-25 01:02:00,
2013-03-24 21:12:00,46.0,-99.9,-100.00,NW,320,14.0,21.0,-999,-99.99,,,-99.99,,2013-03-25 01:12:00,
2013-03-24 21:22:00,46.0,-99.9,-100.00,NW,325,14.0,21.0,-999,-99.99,,,-99.99,,2013-03-25 01:22:00,
2013-03-24 21:32:00,46.0,-99.9,-100.00,NW,325,17.0,21.0,-999,-99.99,,,-99.99,,2013-03-25 01:32:00,
2013-03-24 21:42:00,46.0,-99.9,-100.00,NW,320,14.0,24.0,-999,-99.99,,,-99.99,,2013-03-25 01:42:00,
2013-03-24 21:53:00,46.0,-99.9,-100.00,NW,310,19.0,23.0,-999,-99.99,,,-99.99,,2013-03-25 01:53:00,
2013-03-24 22:02:00,46.0,-99.9,-100.00,NW,315,16.0,23.0,-999,-99.99,,,-99.99,,2013-03-25 02:02:00,
2013-03-24 22:12:00,46.0,-99.9,-100.00,NW,305,14.0,21.0,-999,-99.99,,,-99.99,,2013-03-25 02:12:00,
2013-03-24 22:23:00,46.0,-99.9,-100.00,NW,315,14.0,19.0,-999,-99.99,,,-99.99,,2013-03-25 02:23:00,
2013-03-24 22:33:00,46.0,-99.9,-100.00,NW,325,14.0,19.0,-999,-99.99,,,-99.99,,2013-03-25 02:33:00,
2013-03-24 22:43:00,46.0,-99.9,-100.00,NW,320,13.0,19.0,-999,-99.99,,,-99.99,,2013-03-25 02:43:00,
2013-03-24 22:52:00,46.0,-99.9,-100.00,North,0,11.0,14.0,-999,-99.99,,,-99.99,,2013-03-25 02:52:00,
2013-03-24 23:03:00,46.0,-99.9,-100.00,NNW,335,13.0,19.0,-999,-99.99,,,-99.99,,2013-03-25 03:03:00,
2013-03-24 23:13:00,46.0,-99.9,-100.00,NNW,345,13.0,18.0,-999,-99.99,,,-99.99,,2013-03-25 03:13:00,
2013-03-24 23:23:00,45.0,-99.9,-100.00,NNW,340,12.0,18.0,-999,-99.99,,,-99.99,,2013-03-25 03:23:00,
2013-03-24 23:34:00,45.0,-99.9,-100.00,NW,325,10.0,19.0,-999,-99.99,,,-99.99,,2013-03-25 03:34:00,
2013-03-24 23:43:00,45.0,-99.9,-100.00,NW,315,6.0,12.0,-999,-99.99,,,-99.99,,2013-03-25 03:43:00,
2013-03-24 23:53:00,45.0,-99.9,-100.00,NW,315,6.0,14.0,-999,-99.99,,,-99.99,,2013-03-25 03:53:00,